User: anonymous   Login
Location: Unspecified
(0.0000°N, 0.0000°E)
Time: 10:33:39
(UTC+00:00)
Language:

CHUBUSAT 3 - Orbit

View from above orbital plane
View from above orbital plane
View from above satellite
View from above satellite

Ground track
Ground track

The orbit data is extracted from the following two-line orbital elements,

1 41339U 16012C   21017.16542343  .00000368  00000-0  21708-4 0  9998
2 41339  31.0124  65.2348 0013498  81.5572 278.6617 15.00580055269850
Epoch (UTC): 17 January 2021 03:58:12
Eccentricity: 0.0013498
inclination: 31.0124°
perigee height: 556 km
apogee height: 574 km
right ascension of ascending node: 65.2348°
argument of perigee: 81.5572°
revolutions per day: 15.00580055
mean anomaly at epoch: 278.6617°
orbit number at epoch: 26985

The dashed part of the orbit path shows where the satellite is in the earth's shadow,  

DLR